TimeCST,TemperatureF,Dew PointF,Humidity,Sea Level PressureIn,VisibilityMPH,Wind Direction,Wind SpeedMPH,Gust SpeedMPH,PrecipitationIn,Events,Conditions,WindDirDegrees,DateUTC
12:52 AM,30.9,28.9,92,29.75,6.0,NNW,17.3,-,0.00,Snow,Light Snow,330,2013-02-28 06:52:00
1:38 AM,32.0,30.2,93,29.74,7.0,NNW,15.0,-,0.00,,Overcast,330,2013-02-28 07:38:00
1:49 AM,32.0,30.2,93,29.75,6.0,NNW,16.1,-,0.00,,Overcast,330,2013-02-28 07:49:00
1:52 AM,32.0,30.0,92,29.77,6.0,NNW,17.3,-,0.00,,Overcast,330,2013-02-28 07:52:00
2:23 AM,32.0,30.2,93,29.75,6.0,NNW,15.0,-,N/A,,Overcast,330,2013-02-28 08:23:00
2:48 AM,32.0,30.2,93,29.76,4.0,NNW,17.3,-,0.00,Snow,Light Snow,330,2013-02-28 08:48:00
2:52 AM,32.0,30.0,92,29.78,3.0,NNW,18.4,-,0.00,Snow,Light Snow,330,2013-02-28 08:52:00
3:52 AM,32.0,30.0,92,29.80,3.0,NNW,17.3,-,0.00,Snow,Light Snow,330,2013-02-28 09:52:00
4:06 AM,32.0,30.2,93,29.78,3.0,NNW,16.1,-,0.00,Snow,Light Snow,330,2013-02-28 10:06:00
4:39 AM,32.0,30.2,93,29.79,6.0,NNW,17.3,-,0.00,,Overcast,330,2013-02-28 10:39:00
4:52 AM,32.0,30.0,92,29.82,6.0,NNW,15.0,-,0.00,Snow,Light Snow,330,2013-02-28 10:52:00
5:00 AM,32.0,30.2,93,29.80,6.0,NNW,15.0,-,0.00,Snow,Light Snow,330,2013-02-28 11:00:00
5:09 AM,32.0,30.2,93,29.81,4.0,NNW,15.0,-,0.00,Snow,Light Snow,330,2013-02-28 11:09:00
5:38 AM,32.0,30.2,93,29.81,9.0,NNW,15.0,-,0.00,,Overcast,330,2013-02-28 11:38:00
5:52 AM,32.0,30.0,92,29.84,8.0,NNW,11.5,-,0.00,Snow,Light Snow,330,2013-02-28 11:52:00
6:52 AM,33.1,28.9,85,29.86,10.0,North,15.0,-,0.00,,Overcast,350,2013-02-28 12:52:00
7:16 AM,33.8,28.4,81,29.85,10.0,NNW,15.0,-,N/A,,Overcast,340,2013-02-28 13:16:00
7:52 AM,33.1,28.9,85,29.89,10.0,North,15.0,-,N/A,,Overcast,350,2013-02-28 13:52:00
8:52 AM,34.0,28.9,82,29.91,10.0,North,16.1,-,N/A,,Overcast,350,2013-02-28 14:52:00
9:52 AM,34.0,28.9,82,29.93,10.0,North,20.7,-,N/A,,Overcast,350,2013-02-28 15:52:00
10:52 AM,34.0,28.9,82,29.95,9.0,NNW,16.1,-,N/A,,Overcast,340,2013-02-28 16:52:00
11:52 AM,35.1,28.0,76,29.96,10.0,North,17.3,-,N/A,,Overcast,350,2013-02-28 17:52:00
12:52 PM,35.1,28.0,76,29.96,10.0,North,13.8,-,N/A,,Overcast,350,2013-02-28 18:52:00
1:52 PM,34.0,28.9,82,29.98,10.0,NNW,16.1,-,N/A,,Overcast,340,2013-02-28 19:52:00
3:52 PM,34.0,26.1,73,30.01,10.0,North,16.1,-,N/A,,Overcast,350,2013-02-28 21:52:00
4:52 PM,33.1,26.1,75,30.03,10.0,North,15.0,-,N/A,,Overcast,360,2013-02-28 22:52:00
5:52 PM,32.0,25.0,75,30.05,10.0,North,8.1,-,N/A,,Overcast,360,2013-02-28 23:52:00
6:12 PM,32.0,24.8,75,30.04,10.0,North,8.1,-,N/A,,Overcast,350,2013-03-01 00:12:00
6:52 PM,32.0,25.0,75,30.07,10.0,North,12.7,-,N/A,,Overcast,360,2013-03-01 00:52:00
7:08 PM,32.0,24.8,75,30.04,10.0,North,12.7,-,N/A,,Overcast,360,2013-03-01 01:08:00
7:32 PM,30.2,24.8,80,30.05,10.0,North,13.8,-,N/A,,Overcast,360,2013-03-01 01:32:00
7:52 PM,30.9,24.1,76,30.07,10.0,North,15.0,-,N/A,,Overcast,360,2013-03-01 01:52:00
8:52 PM,30.0,23.0,75,30.08,10.0,NNE,11.5,-,0.00,,Overcast,20,2013-03-01 02:52:00
9:38 PM,28.4,21.2,74,30.06,10.0,NNE,12.7,-,N/A,,Overcast,20,2013-03-01 03:38:00
9:52 PM,28.9,21.9,75,30.09,10.0,NNE,13.8,-,N/A,,Overcast,20,2013-03-01 03:52:00
10:10 PM,28.4,21.2,74,30.07,10.0,NNE,12.7,-,N/A,,Overcast,30,2013-03-01 04:10:00
10:41 PM,28.4,21.2,74,30.07,10.0,North,9.2,-,N/A,,Overcast,10,2013-03-01 04:41:00
10:52 PM,28.0,19.9,72,30.10,10.0,North,11.5,-,N/A,,Overcast,360,2013-03-01 04:52:00
11:52 PM,28.0,19.9,72,30.09,10.0,North,9.2,-,N/A,,Overcast,350,2013-03-01 05:52:00